Weather in Marau Sound

Solomon Islands     9°48′06″S   160°50′42″E
temp.,
°C
wind,
m/s
gust,
m/s
humid.,
%
clouds,
%
prec.,
mm/h
press.,
hPa
HPBL,
m
7 march, sun
sun723:00+24nw4890100 1.0 1011421
02:00+24wnw3589100 0.0 1009253
05:00+24nw3689100 0.3 1009354
08:00+25nw3586100 0.0 1010327
11:00+29nw2368100 0.8 1011855
14:00+28nnw1280100 4.9 1008526
17:00+27nw1181100 7.7 1008622
20:00+25nw1187100 0.1 1010223
8 march, mon
mon823:00+25wnw1288100 0.1 1011148
02:00+24wnw1288100 0.0 1009106
05:00+24w2288100 0.1 100965
08:00+26w1182100 0.5 1011112
11:00+29nne2265100 0.5 1011809
14:00+29ne2270100 0.4 1009704
17:00+28ene2376100 1.1 1009661
20:00+25ene2389100 1.0 1011186
9 march, tue
tue923:00+25ne1287100 1.1 1012240
02:00+24e1287100 0.0 1010277
05:00+24ssw0187100 0.0 1010275
08:00+25se1285100 0.0 1012303
11:00+29ese2361100 0.0 1012906
14:00+29ese3362100 0.0 1009819
17:00+28ese3472100 0.1 1009548
20:00+25sse238596 0.1 1011253
10 march, wed
wed1023:00+25s128798 0.5 1012275
02:00+24ssw128895 0.0 1010250
05:00+24sse019190 1.5 101098
08:00+25ese128771 2.1 1012189
11:00+25se238785 3.2 1012296
14:00+25e2388100 0.6 1009346
17:00+24s1288100 1.5 1009150
20:00+24sse238899 0.0 1011222
11 march, thu
thu1123:00+24sse1287100 0.0 1011234
02:00+24se128992 0.0 1010225
05:00+23s129058 0.3 1010192
08:00+25ese138637 3.4 1012274
11:00+29e336937 3.5 1012839
14:00+29ene336897 1.1 1009864
17:00+28ene227298 1.9 1009691
20:00+25ne1287100 1.1 1011186